TimeCST,TemperatureF,Dew PointF,Humidity,Sea Level PressureIn,VisibilityMPH,Wind Direction,Wind SpeedMPH,Gust SpeedMPH,PrecipitationIn,Events,Conditions,WindDirDegrees,DateUTC
12:52 AM,-9.0,-20.9,56,30.67,10.0,NW,12.7,21.9,N/A,,Clear,310,2014-01-06 06:52:00
1:52 AM,-9.0,-20.0,59,30.65,10.0,NW,11.5,19.6,N/A,,Clear,310,2014-01-06 07:52:00
2:52 AM,-8.0,-20.0,56,30.66,10.0,NW,11.5,20.7,N/A,,Clear,310,2014-01-06 08:52:00
3:52 AM,-9.0,-18.9,62,30.66,10.0,WNW,12.7,-,N/A,,Clear,300,2014-01-06 09:52:00
4:52 AM,-8.0,-18.0,61,30.65,10.0,WNW,15.0,23.0,N/A,,Clear,290,2014-01-06 10:52:00
5:52 AM,-8.0,-18.9,59,30.64,10.0,West,16.1,23.0,N/A,,Clear,280,2014-01-06 11:52:00
6:52 AM,-8.0,-18.0,61,30.66,10.0,WNW,10.4,-,N/A,,Clear,300,2014-01-06 12:52:00
7:52 AM,-8.0,-18.0,61,30.65,10.0,WNW,15.0,-,N/A,,Clear,300,2014-01-06 13:52:00
8:52 AM,-7.1,-17.0,62,30.67,10.0,West,10.4,-,N/A,,Clear,280,2014-01-06 14:52:00
9:52 AM,-4.0,-16.1,56,30.66,10.0,WNW,11.5,-,N/A,,Clear,300,2014-01-06 15:52:00
10:52 AM,-0.0,-14.1,52,30.64,10.0,WNW,13.8,21.9,N/A,,Clear,300,2014-01-06 16:52:00
11:52 AM,3.9,-13.0,46,30.58,10.0,WNW,15.0,24.2,N/A,,Clear,300,2014-01-06 17:52:00
12:52 PM,6.1,-11.9,44,30.53,10.0,WNW,19.6,27.6,N/A,,Clear,300,2014-01-06 18:52:00
1:52 PM,7.0,-11.9,42,30.48,10.0,WNW,16.1,21.9,N/A,,Clear,300,2014-01-06 19:52:00
2:52 PM,10.0,-11.9,37,30.44,10.0,WNW,12.7,21.9,N/A,,Clear,300,2014-01-06 20:52:00
3:52 PM,10.9,-11.9,35,30.42,10.0,WNW,10.4,-,N/A,,Clear,290,2014-01-06 21:52:00
4:52 PM,10.9,-11.0,37,30.39,10.0,WNW,6.9,-,N/A,,Clear,300,2014-01-06 22:52:00
5:52 PM,10.0,-11.0,38,30.35,10.0,WNW,6.9,-,N/A,,Overcast,300,2014-01-06 23:52:00
6:52 PM,9.0,-7.1,48,30.34,10.0,Calm,Calm,-,N/A,,Mostly Cloudy,0,2014-01-07 00:52:00
7:52 PM,10.0,-6.0,48,30.32,10.0,SSW,3.5,-,N/A,,Overcast,210,2014-01-07 01:52:00
8:52 PM,10.9,-6.0,47,30.28,10.0,Calm,Calm,-,N/A,,Overcast,0,2014-01-07 02:52:00
9:52 PM,12.0,-5.1,46,30.24,10.0,East,3.5,-,N/A,,Overcast,90,2014-01-07 03:52:00
10:52 PM,12.0,-0.9,56,30.19,10.0,East,3.5,-,N/A,,Mostly Cloudy,90,2014-01-07 04:52:00
11:52 PM,12.0,-0.0,59,30.15,10.0,NE,5.8,-,N/A,,Overcast,50,2014-01-07 05:52:00